Regional Weather Roundup
Issued by NWS

Home | Current Version | Previous Version | Graphics & Text | Print | Product List | Glossary On
Versions: 1 2 3 4 5 6 7 8 9 10 11 12 13 14 15 16 17 18 19 20 21 22 23 24 25 26 27 28 29 30 31 32 33 34 35 36 37 38 39 40 41 42 43 44 45 46 47 48 49 50
000
ASUS43 KFSD 312210
RWRSD

WEATHER ROUNDUP FOR SOUTH DAKOTA
NATIONAL WEATHER SERVICE SIOUX FALLS SD
400 PM CST SAT JAN 31 2015

NOTE: "FAIR" INDICATES FEW OR NO CLOUDS BELOW 12,000 FEET WITH NO
SIGNIFICANT WEATHER AND/OR OBSTRUCTIONS TO VISIBILITY.


SDZ001>005-009-010-012>017-312300-
NORTHWEST AND NORTH CENTRAL SOUTH DAKOTA

CITY           SKY/WX    TMP DP  RH WIND       PRES   REMARKS
BUFFALO          N/A     20  18  92 E14       29.97R WCI   7
FAITH            N/A     20  15  81 NE16      30.08R WCI   6
MOBRIDGE       CLOUDY    19   3  49 NE14      30.18R WCI   6
$$

SDZ012>016-024>037-041>051-057-063-072>074-312300-
SOUTHWEST AND SOUTH CENTRAL SOUTH DAKOTA

CITY           SKY/WX    TMP DP  RH WIND       PRES   REMARKS
RAPID CTY ARPT FOG       23  22  96 E15       29.97S VSB 1/4 WCI  10
PIERRE         CLOUDY    18  15  88 NE18      30.10S WCI   2
CUSTER         PTSUNNY   30  20  66 E8        29.82F WCI  22
ELLSWORTH AFB  FRZ DRZL  23  21  93 E14       29.98  VSB<1/4 WCI  11
PHILIP         CLOUDY    21  18  88 E18       30.05F WCI   6
PINE RIDGE     LGT SNOW  26  23  88 NE8       29.93R FOG     WCI  18
WINNER         FRZ RAIN  24  21  88 NE17      30.03R VSB 1/2 WCI  11
$$

SDZ004>011-016>023-039-040-312300-
NORTHEAST SOUTH DAKOTA

CITY           SKY/WX    TMP DP  RH WIND       PRES   REMARKS
ABERDEEN       CLOUDY    18   2  49 NE20G26   30.22R WCI   2
WATERTOWN      CLOUDY    17  14  88 NE17      30.12S WCI   1
SISSETON         N/A     18   5  57 NE18      30.23R WCI   2
$$

SDZ017-020-022-023-036>040-048>070-312300-
SOUTHEAST SOUTH DAKOTA

CITY           SKY/WX    TMP DP  RH WIND       PRES   REMARKS
SIOUX FALLS    LGT SNOW  26  23  88 NE21      30.06S FOG     WCI  12
HURON          CLOUDY    22  17  81 NE17      30.12F WCI   8
CHAMBERLAIN    CLOUDY    21  18  90 NE9G18    30.06S WCI  10
MITCHELL       CLOUDY    25  22  88 NE16      30.08F WCI  12
YANKTON        CLOUDY    28  27  93 NE16      30.02F VSB 3/4 WCI  17
$$

ABBREVIATIONS USED IN REMARKS
   TC - TEMPERATURE IN CELSIUS
  WCI - WIND CHILL INDEX
   HX - HEAT INDEX
  VSB - VISIBILITY



USA.gov is the U.S. government's official web portal to all federal, state and local government web resources and services.